Bookmark and Share
Track history (hours):
 

Cimbria

Last reported at 2014-Apr-23 15:24 UTC. Time now 2014-Apr-24 00:23 UTC.
Position N 31°36' E 031°46'.

Length 109 m; draft 4 m.

Type: Cargo ship. MMSI: 304981000.

NotesDate/timePositionNaut miles runAvg speedWind from/ knotsBaromVisibWave heightAir tempDewpointWater temp
2014-Apr-23 15:24N 31°36' E 031°46'0 0.0
2014-Apr-23 14:24N 31°36' E 031°46'0 0.0
2014-Apr-23 13:30N 31°36' E 031°46'0 0.0
2014-Apr-23 12:30N 31°36' E 031°46'0 0.0
2014-Apr-23 11:33N 31°36' E 031°46'0 0.0
2014-Apr-23 10:21N 31°36' E 031°46'0 0.0
2014-Apr-23 09:30N 31°36' E 031°46'0 0.0
2014-Apr-23 07:30N 31°36' E 031°46'0 0.0
2014-Apr-22 21:21N 31°36' E 031°46'0 0.0
2014-Apr-22 19:27N 31°36' E 031°46'0 0.0
2014-Apr-22 18:33N 31°36' E 031°46'0 0.0
2014-Apr-22 17:33N 31°36' E 031°46'0 0.0
2014-Apr-22 16:33N 31°36' E 031°46'0 0.0
2014-Apr-22 10:18N 31°36' E 031°46'0 0.0
2014-Apr-22 09:30N 31°36' E 031°46'76 6.9
2014-Apr-21 22:26N 32°00' E 030°21'1310.5
2014-Apr-21 21:11N 32°03' E 030°06'710.8
2014-Apr-21 20:33N 32°05' E 029°58'1110.7
2014-Apr-21 19:33N 32°05' E 029°45'1110.7
2014-Apr-21 18:33N 32°04' E 029°33'1 0.7
2014-Apr-21 17:31N 32°04' E 029°32'0 0.1
2014-Apr-21 16:23N 32°04' E 029°32'0 0.4
2014-Apr-21 15:34N 32°04' E 029°32'0 0.4
2014-Apr-21 14:32N 32°04' E 029°33'  
2014-Apr-15 17:33N 35°36' E 011°23'1111.4
2014-Apr-15 16:33N 35°46' E 011°17'1010.0
2014-Apr-15 15:33N 35°52' E 011°07'1410.9
2014-Apr-15 14:17N 35°51' E 010°50'8 4.7
2014-Apr-15 12:34N 35°49' E 010°40'1 0.2
2014-Apr-15 08:31N 35°50' E 010°39'0 0.0
2014-Apr-15 07:31N 35°50' E 010°39'0 0.0
2014-Apr-15 06:31N 35°50' E 010°39'0 0.0
2014-Apr-15 05:31N 35°50' E 010°39'23 0.7
2014-Apr-13 22:26N 36°08' E 010°55'1112.0
2014-Apr-13 21:32N 36°17' E 011°02'1212.1
2014-Apr-13 20:33N 36°27' E 011°10'1211.6
2014-Apr-13 19:33N 36°38' E 011°16'1212.2
2014-Apr-13 18:33N 36°50' E 011°16'1212.2
2014-Apr-13 17:33N 37°02' E 011°16'1212.1
2014-Apr-13 16:33N 37°15' E 011°17'  

Dump ship's entire track history

sailing weather and tide predictions

Cimbria — V2CC7 — position and weather